| time (UTC) | temp C | wind direction | speed KPH | gust KPH | rain 1hr cm | rain 24hr cm | rain mn cm | humidity % | barometer mb |
| 20260504223011 | 20 | 231 | 6.4 | 20.9 | 0.00 | 0.00 | 0.00 | 36 | 1006.1 |
| 20260504222442 | 20 | 215 | 4.8 | 14.5 | 0.00 | 0.00 | 0.00 | 38 | 1006.1 |
| 20260504221443 | 20 | 19 | 4.8 | 14.5 | 0.00 | 0.00 | 0.00 | 38 | 1006.1 |
| 20260504220005 | 20 | 301 | 4.8 | 16.1 | 0.00 | 0.00 | 0.00 | 37 | 1006.0 |
| 20260504215004 | 20 | 301 | 4.8 | 17.7 | 0.00 | 0.00 | 0.00 | 38 | 1006.0 |
| 20260504214004 | 21 | 301 | 4.8 | 12.9 | 0.00 | 0.00 | 0.00 | 36 | 1006.0 |
| 20260504213005 | 21 | 237 | 4.8 | 19.3 | 0.00 | 0.00 | 0.00 | 37 | 1006.1 |
| 20260504212004 | 21 | 243 | 6.4 | 14.5 | 0.00 | 0.00 | 0.00 | 35 | 1006.1 |
| 20260504211435 | 21 | 276 | 4.8 | 16.1 | 0.00 | 0.00 | 0.00 | 37 | 1006.2 |
| 20260504210445 | 21 | 237 | 4.8 | 11.3 | 0.00 | 0.00 | 0.00 | 37 | 1006.1 |
| 20260504204951 | 21 | 235 | 4.8 | 17.7 | 0.00 | 0.00 | 0.00 | 37 | 1006.1 |
| 20260504203952 | 21 | 251 | 6.4 | 20.9 | 0.00 | 0.00 | 0.00 | 37 | 1006.1 |
| 20260504202952 | 21 | 203 | 4.8 | 19.3 | 0.00 | 0.00 | 0.00 | 37 | 1006.1 |
| 20260504202432 | 21 | 191 | 6.4 | 17.7 | 0.00 | 0.00 | 0.00 | 35 | 1006.1 |
| 20260504200944 | 21 | 214 | 6.4 | 16.1 | 0.00 | 0.00 | 0.00 | 35 | 1006.0 |
| 20260504195943 | 21 | 301 | 6.4 | 20.9 | 0.00 | 0.00 | 0.00 | 37 | 1006.2 |
| 20260504194944 | 21 | 328 | 4.8 | 14.5 | 0.00 | 0.00 | 0.00 | 37 | 1006.2 |
| 20260504193944 | 20 | 301 | 6.4 | 22.5 | 0.00 | 0.00 | 0.00 | 36 | 1006.3 |
| 20260504193422 | 21 | 301 | 6.4 | 20.9 | 0.00 | 0.00 | 0.00 | 35 | 1006.1 |
| 20260504191941 | 21 | 301 | 9.7 | 24.1 | 0.00 | 0.00 | 0.00 | 34 | 1006.1 |
| 20260504190941 | 22 | 192 | 6.4 | 24.1 | 0.00 | 0.00 | 0.00 | 32 | 1006.5 |
| 20260504185940 | 22 | 245 | 8.0 | 22.5 | 0.00 | 0.00 | 0.00 | 34 | 1006.6 |
| 20260504184939 | 22 | 218 | 9.7 | 24.1 | 0.00 | 0.00 | 0.00 | 31 | 1006.6 |
| 20260504183939 | 22 | 183 | 9.7 | 24.1 | 0.00 | 0.00 | 0.00 | 32 | 1007.1 |
| 20260504182938 | 22 | 81 | 4.8 | 19.3 | 0.00 | 0.00 | 0.00 | 34 | 1006.9 |
| 20260504181938 | 22 | 232 | 6.4 | 17.7 | 0.00 | 0.00 | 0.00 | 33 | 1006.9 |
| 20260504180928 | 22 | 276 | 8.0 | 17.7 | 0.00 | 0.00 | 0.00 | 37 | 1007.1 |
| 20260504175928 | 22 | 245 | 8.0 | 17.7 | 0.00 | 0.00 | 0.00 | 33 | 1007.0 |
| 20260504174928 | 22 | 257 | 6.4 | 25.7 | 0.00 | 0.00 | 0.00 | 35 | 1007.0 |
| 20260504173927 | 22 | 181 | 8.0 | 27.4 | 0.00 | 0.00 | 0.00 | 34 | 1007.1 |
| 20260504172926 | 22 | 252 | 6.4 | 16.1 | 0.00 | 0.00 | 0.00 | 41 | 1007.1 |
| 20260504171923 | 21 | 194 | 4.8 | 17.7 | 0.00 | 0.00 | 0.00 | 33 | 1007.1 |
| 20260504170924 | 20 | 252 | 11.3 | 37.0 | 0.00 | 0.00 | 0.00 | 34 | 1007.4 |
| 20260504150914 | 19 | 278 | 4.8 | 11.3 | 0.00 | 0.00 | 0.00 | 42 | 1008.6 |
| 20260504140905 | 16 | 236 | 6.4 | 16.1 | 0.00 | 0.00 | 0.00 | 50 | 1009.2 |
| 20260504081821 | 3 | 260 | 0.0 | 0.0 | 0.00 | 0.00 | 0.00 | 83 | 1010.2 |
| 20260504081300 | 3 | 260 | 0.0 | 0.0 | 0.00 | 0.00 | 0.00 | 82 | 1010.1 |
| 20260504050739 | 0 | 260 | 0.0 | 0.0 | 0.00 | 0.00 | 0.00 | 84 | 1010.1 |
| 20260504045739 | 0 | 260 | 0.0 | 0.0 | 0.00 | 0.00 | 0.00 | 84 | 1010.1 |
| 20260504044728 | 0 | 260 | 0.0 | 0.0 | 0.00 | 0.00 | 0.00 | 83 | 1010.1 |
| 20260504043728 | 0 | 260 | 0.0 | 0.0 | 0.00 | 0.00 | 0.00 | 83 | 1010.1 |
| 20260504042727 | 0 | 260 | 0.0 | 0.0 | 0.00 | 0.00 | 0.00 | 82 | 1010.1 |
| 20260504041727 | 0 | 260 | 0.0 | 0.0 | 0.00 | 0.00 | 0.00 | 82 | 1010.1 |
| 20260504041651 | 0 | 260 | 0.0 | 0.0 | 0.00 | 0.00 | 0.00 | 81 | 1009.9 |
| 20260504040208 | 1 | 260 | 0.0 | 0.0 | 0.00 | 0.00 | 0.00 | 80 | 1009.8 |
| 20260504034722 | 1 | 260 | 0.0 | 0.0 | 0.00 | 0.00 | 0.00 | 80 | 1009.8 |
| 20260504033720 | 1 | 260 | 0.0 | 0.0 | 0.00 | 0.00 | 0.00 | 79 | 1009.7 |
| 20260504032718 | 1 | 260 | 0.0 | 0.0 | 0.00 | 0.00 | 0.00 | 79 | 1009.7 |
| 20260504031719 | 1 | 260 | 0.0 | 0.0 | 0.00 | 0.00 | 0.00 | 79 | 1009.7 |
| 20260504030711 | 1 | 260 | 0.0 | 0.0 | 0.00 | 0.00 | 0.00 | 78 | 1009.7 |
| 20260504025712 | 2 | 260 | 0.0 | 0.0 | 0.00 | 0.00 | 0.00 | 76 | 1009.7 |
| 20260504024709 | 2 | 260 | 0.0 | 0.0 | 0.00 | 0.00 | 0.00 | 75 | 1009.7 |
| 20260504023709 | 2 | 260 | 0.0 | 0.0 | 0.00 | 0.00 | 0.00 | 75 | 1009.7 |
| 20260504022710 | 2 | 260 | 0.0 | 0.0 | 0.00 | 0.00 | 0.00 | 75 | 1009.6 |
| 20260504021707 | 3 | 260 | 0.0 | 0.0 | 0.00 | 0.00 | 0.00 | 73 | 1009.6 |
| 20260504021145 | 3 | 260 | 0.0 | 0.0 | 0.00 | 0.00 | 0.00 | 72 | 1009.5 |
| 20260504015708 | 3 | 260 | 0.0 | 0.0 | 0.00 | 0.00 | 0.00 | 72 | 1009.4 |
| 20260504014707 | 3 | 260 | 0.0 | 0.0 | 0.00 | 0.00 | 0.00 | 69 | 1009.4 |
| 20260504013708 | 4 | 260 | 0.0 | 0.0 | 0.00 | 0.00 | 0.00 | 69 | 1009.2 |
| 20260504012708 | 4 | 260 | 0.0 | 0.0 | 0.00 | 0.00 | 0.00 | 67 | 1009.2 |
| 20260504012639 | 5 | 260 | 0.0 | 0.0 | 0.00 | 0.00 | 0.00 | 65 | 1009.2 |
| 20260504010653 | 5 | 260 | 0.0 | 0.0 | 0.00 | 0.00 | 0.00 | 63 | 1009.0 |
| 20260504010126 | 6 | 260 | 0.0 | 0.0 | 0.00 | 0.00 | 0.00 | 61 | 1008.7 |
| 20260504004655 | 6 | 260 | 0.0 | 0.0 | 0.00 | 0.03 | 0.00 | 60 | 1008.7 |
| 20260504003653 | 6 | 260 | 0.0 | 0.0 | 0.00 | 0.03 | 0.00 | 59 | 1008.6 |
| 20260504002653 | 7 | 260 | 0.0 | 0.0 | 0.00 | 0.03 | 0.00 | 56 | 1008.3 |
| 20260504002136 | 7 | 263 | 0.0 | 0.0 | 0.00 | 0.03 | 0.00 | 55 | 1008.3 |
| 20260504000651 | 8 | 263 | 0.0 | 0.0 | 0.00 | 0.03 | 0.00 | 53 | 1008.2 |
| 20260503235651 | 8 | 263 | 0.0 | 0.0 | 0.00 | 0.03 | 0.00 | 52 | 1008.2 |
| 20260503234651 | 8 | 263 | 0.0 | 0.0 | 0.00 | 0.03 | 0.00 | 51 | 1008.2 |
| 20260503233651 | 9 | 263 | 0.0 | 3.2 | 0.00 | 0.03 | 0.00 | 52 | 1008.0 |
| 20260503232652 | 9 | 263 | 1.6 | 3.2 | 0.00 | 0.03 | 0.00 | 51 | 1007.9 |
| 20260503231641 | 9 | 264 | 0.0 | 4.8 | 0.00 | 0.03 | 0.00 | 51 | 1007.9 |
| 20260503230641 | 10 | 268 | 1.6 | 4.8 | 0.00 | 0.03 | 0.00 | 49 | 1007.7 |
| 20260503225641 | 10 | 310 | 3.2 | 11.3 | 0.00 | 0.03 | 0.00 | 49 | 1007.6 |
| 20260503224641 | 10 | 265 | 3.2 | 4.8 | 0.00 | 0.03 | 0.00 | 48 | 1007.6 |